Вернуться в каталог

ECHOSTAR 17

АктивенСвязьGEO
NORAD 38551·PAYLOAD·🇺🇸 United States

Запущен Jul 5, 2012 с Guiana Space Centre

Loading…

TLE

СвежийSource: Space-Track

Эпоха: Sep 14, 2026, 12:29 UTC

1 38551U 12035A   26257.52058617 -.00000083  00000-0  00000-0 0  9991
2 38551   0.0196 141.9240 0002122  28.3745 263.5108  1.00271952 51959

Отслеживайте ECHOSTAR 17 в реальном времени с AllMySat

Download on the App Store